Date String (YYYY-MM-DD hh:mm:ss) UTC,Instrument flags,Ambient pressure (hPa),Sample flow (lpm),Bypass flow (lpm),Sample temperature (°C),Ambient temperature (°C),ASC tube jacket temperature (°C),LED temperature (°C),Box temperature (°C),Sample RH (%),Span deviation,Mass concentration (μg/m³),Mass concentration (μg/m³),Mass concentration (μg/m³)
DateTimeUTC,F1_M11,P_M11,Q1_M11,Q2_M11,T1_M11,T2_M11,T3_M11,T4_M11,T5_M11,U1_M11,ZSPAN_M11,X0_M11,X2_M11,X1_M11
2022-07-18 12:00:00,,0827.9,5.01,0.00,29.8,28.5,00.0,38.5,31.7,25.7,0000.0,0013.59,0007.56,0006.59
2022-07-18 12:01:00,,0827.8,4.99,0.00,29.8,28.6,00.0,38.5,31.7,25.6,0000.0,0013.44,0007.54,0006.58
2022-07-18 12:02:00,,0827.9,5.00,0.00,29.8,28.7,00.0,38.5,31.8,25.7,0000.0,0013.74,0007.46,0006.56
2022-07-18 12:03:00,,0827.8,4.99,0.00,29.8,28.7,00.0,38.6,31.8,25.6,0000.0,0013.83,0007.45,0006.55
2022-07-18 12:04:00,,0827.8,5.00,0.00,29.9,28.8,00.0,38.6,31.8,25.6,0000.0,0013.68,0007.39,0006.53
2022-07-18 12:05:00,,0827.9,5.00,0.00,29.9,28.9,00.0,38.6,31.9,25.6,0000.0,0013.20,0007.40,0006.54
2022-07-18 12:06:00,,0827.9,4.99,0.00,29.9,28.9,00.0,38.6,31.9,25.6,0000.0,0012.93,0007.41,0006.54
2022-07-18 12:07:00,,0827.9,5.00,0.00,30.0,28.8,00.0,38.6,31.9,25.6,0000.0,0012.98,0007.40,0006.55
2022-07-18 12:08:00,,0827.8,5.01,0.00,30.0,28.1,00.0,38.6,31.9,25.7,0000.0,0012.78,0007.43,0006.56
2022-07-18 12:09:00,,0827.9,5.01,0.00,29.9,27.7,00.0,38.5,31.7,25.8,0000.0,0012.56,0007.49,0006.57
2022-07-18 12:10:00,,0827.9,4.99,0.00,29.9,27.7,00.0,38.5,31.7,25.8,0000.0,0012.73,0007.54,0006.56
2022-07-18 12:11:00,,0827.9,5.00,0.00,29.8,27.8,00.0,38.5,31.6,25.9,0000.0,0013.29,0007.58,0006.56
2022-07-18 12:12:00,,0828.0,5.00,0.00,29.8,27.9,00.0,38.5,31.6,26.0,0000.0,0014.87,0007.59,0006.58
2022-07-18 12:13:00,,0828.1,4.99,0.00,29.8,28.0,00.0,38.5,31.6,26.0,0000.0,0015.01,0007.63,0006.59
2022-07-18 12:14:00,,0828.0,5.00,0.00,29.8,28.1,00.0,38.5,31.6,25.9,0000.0,0014.82,0007.68,0006.61
2022-07-18 12:15:00,,0828.0,5.00,0.00,29.8,28.2,00.0,38.5,31.6,25.8,0000.0,0014.84,0007.70,0006.62
2022-07-18 12:16:00,,0827.9,5.01,0.00,29.8,28.4,00.0,38.5,31.7,25.8,0000.0,0014.83,0007.72,0006.63
2022-07-18 12:17:00,,0828.0,5.01,0.00,29.8,28.5,00.0,38.6,31.7,25.8,0000.0,0014.65,0007.63,0006.62
2022-07-18 12:18:00,,0827.9,4.99,0.00,29.8,28.6,00.0,38.6,31.8,25.8,0000.0,0014.44,0007.61,0006.61
2022-07-18 12:19:00,,0828.0,5.00,0.00,29.8,28.6,00.0,38.6,31.8,25.8,0000.0,0014.32,0007.62,0006.63
2022-07-18 12:20:00,,0828.0,5.00,0.00,29.9,28.7,00.0,38.6,31.8,25.8,0000.0,0014.69,0007.57,0006.62
2022-07-18 12:21:00,,0827.9,4.99,0.00,29.9,28.8,00.0,38.6,31.8,26.0,0000.0,0014.71,0007.51,0006.62
2022-07-18 12:22:00,,0827.9,5.00,0.00,29.9,28.8,00.0,38.6,31.9,25.9,0000.0,0014.98,0007.44,0006.62
2022-07-18 12:23:00,,0827.9,5.00,0.00,29.9,28.8,00.0,38.6,31.9,26.0,0000.0,0013.86,0007.43,0006.62
2022-07-18 12:24:00,,0828.0,5.00,0.00,30.0,27.9,00.0,38.6,31.8,26.2,0000.0,0013.16,0007.47,0006.62
2022-07-18 12:25:00,,0828.0,4.99,0.00,29.9,27.2,00.0,38.5,31.7,26.2,0000.0,0013.42,0007.45,0006.63
2022-07-18 12:26:00,,0828.0,5.00,0.00,29.8,27.0,00.0,38.5,31.5,26.2,0000.0,0013.91,0007.50,0006.64
2022-07-18 12:27:00,,0828.0,5.00,0.00,29.7,27.1,00.0,38.5,31.4,26.4,0000.0,0014.39,0007.56,0006.65
2022-07-18 12:28:00,,0828.0,5.01,0.00,29.7,27.2,00.0,38.4,31.3,26.7,0000.0,0014.48,0007.60,0006.66
2022-07-18 12:29:00,,0827.9,4.99,0.00,29.6,27.4,00.0,38.4,31.4,26.8,0000.0,0014.55,0007.64,0006.68
2022-07-18 12:30:00,,0827.9,5.00,0.00,29.6,27.6,00.0,38.4,31.4,26.9,0000.0,0014.62,0007.66,0006.67
2022-07-18 12:31:00,,0827.9,5.00,0.00,29.6,27.8,00.0,38.4,31.4,26.9,0000.0,0014.88,0007.67,0006.66
2022-07-18 12:32:00,,0828.0,5.00,0.00,29.6,27.9,00.0,38.4,31.4,26.9,0000.0,0014.94,0007.66,0006.65
2022-07-18 12:33:00,,0828.0,4.99,0.00,29.6,28.1,00.0,38.4,31.5,27.0,0000.0,0014.43,0007.67,0006.66
2022-07-18 12:34:00,,0828.0,5.01,0.00,29.6,28.2,00.0,38.4,31.5,26.8,0000.0,0014.10,0007.68,0006.65
2022-07-18 12:35:00,,0828.0,5.01,0.00,29.6,28.3,00.0,38.4,31.6,26.8,0000.0,0014.56,0007.69,0006.64
2022-07-18 12:36:00,,0828.0,4.99,0.00,29.7,28.4,00.0,38.4,31.6,27.1,0000.0,0015.59,0007.72,0006.64
2022-07-18 12:37:00,,0828.0,5.00,0.00,29.7,28.5,00.0,38.5,31.6,26.7,0000.0,0016.54,0007.71,0006.62
2022-07-18 12:38:00,,0827.9,5.01,0.00,29.7,28.6,00.0,38.5,31.7,26.5,0000.0,0016.59,0007.66,0006.63
2022-07-18 12:39:00,,0828.0,5.00,0.00,29.8,28.6,00.0,38.5,31.7,26.6,0000.0,0016.65,0007.67,0006.63
2022-07-18 12:40:00,,0828.0,4.99,0.00,29.8,28.7,00.0,38.5,31.8,26.7,0000.0,0016.88,0007.73,0006.62
2022-07-18 12:41:00,,0828.1,4.99,0.00,29.8,28.8,00.0,38.5,31.8,27.1,0000.0,0017.47,0007.72,0006.62
2022-07-18 12:42:00,,0828.0,5.00,0.00,29.8,28.8,00.0,38.5,31.8,26.8,0000.0,0018.00,0007.68,0006.61
2022-07-18 12:43:00,,0828.0,5.01,0.00,29.9,28.9,00.0,38.6,31.8,26.7,0000.0,0018.55,0007.70,0006.62
2022-07-18 12:44:00,,0828.1,5.00,0.00,29.9,28.9,00.0,38.6,31.9,26.5,0000.0,0018.61,0007.75,0006.62
2022-07-18 12:45:00,,0828.1,5.01,0.00,29.9,28.4,00.0,38.5,31.9,26.6,0000.0,0019.38,0007.79,0006.64
2022-07-18 12:46:00,,0828.1,4.99,0.00,29.9,27.8,00.0,38.5,31.8,26.3,0000.0,0019.89,0007.86,0006.65
2022-07-18 12:47:00,,0828.1,4.99,0.00,29.9,27.7,00.0,38.5,31.7,25.8,0000.0,0019.01,0007.89,0006.65
2022-07-18 12:48:00,,0828.1,5.01,0.00,29.8,27.7,00.0,38.5,31.5,26.2,0000.0,0018.14,0007.90,0006.67
2022-07-18 12:49:00,,0828.1,5.00,0.00,29.8,27.8,00.0,38.5,31.5,26.3,0000.0,0017.82,0007.92,0006.67
2022-07-18 12:50:00,,0828.1,5.00,0.00,29.8,28.0,00.0,38.5,31.6,26.5,0000.0,0018.42,0007.93,0006.67
2022-07-18 12:51:00,,0828.1,4.99,0.00,29.8,28.1,00.0,38.5,31.6,26.6,0000.0,0018.96,0007.92,0006.68
2022-07-18 12:52:00,,0828.1,5.00,0.00,29.8,28.2,00.0,38.5,31.6,26.9,0000.0,0018.87,0007.90,0006.69
2022-07-18 12:53:00,,0828.1,4.99,0.00,29.8,28.3,00.0,38.5,31.7,27.0,0000.0,0018.27,0007.95,0006.71
2022-07-18 12:54:00,,0828.1,5.01,0.00,29.8,28.4,00.0,38.5,31.7,26.6,0000.0,0018.18,0008.00,0006.72
2022-07-18 12:55:00,,0828.1,5.00,0.00,29.8,28.5,00.0,38.5,31.7,26.7,0000.0,0018.22,0007.98,0006.73
2022-07-18 12:56:00,,0828.0,5.00,0.00,29.8,28.6,00.0,38.6,31.8,26.9,0000.0,0017.39,0007.93,0006.72
2022-07-18 12:57:00,,0828.0,5.01,0.00,29.8,28.7,00.0,38.6,31.7,26.4,0000.0,0016.28,0007.83,0006.73
2022-07-18 12:58:00,,0828.0,4.99,0.00,29.9,28.8,00.0,38.6,31.8,25.8,0000.0,0016.07,0007.78,0006.73
2022-07-18 12:59:00,,0828.1,5.01,0.00,29.9,28.8,00.0,38.6,31.9,25.8,0000.0,0016.27,0007.78,0006.72
